Tillbaka till svenska Fidonet
English   Information   Debug  
FILM   0/18
FNEWS_PUBLISH   4926
FN_SYSOP   42201
FN_SYSOP_OLD1   71952
FTP_FIDO   0/2
FTSC_PUBLIC   0/13973
FUNNY   0/4886
GENEALOGY.EUR   0/71
GET_INFO   105
GOLDED   0/408
HAM   9422/16661
HOLYSMOKE   0/6791
HOT_SITES   0/1
HTMLEDIT   0/71
HUB203   466
HUB_100   264
HUB_400   39
HUMOR   0/29
IC   1467/2851
INTERNET   0/424
INTERUSER   0/3
IP_CONNECT   719
JAMNNTPD   0/233
JAMTLAND   0/47
KATTY_KORNER   0/41
LAN   0/16
LINUX-USER   0/19
LINUXHELP   0/1155
LINUX   0/22300
LINUX_BBS   0/957
mail   18.68
mail_fore_ok   249
MENSA   0/341
MODERATOR   0/102
MONTE   0/992
MOSCOW_OKLAHOMA   0/1245
MUFFIN   0/783
MUSIC   0/321
N203_STAT   938
N203_SYSCHAT   313
NET203   321
NET204   69
NET_DEV   0/10
NORD.ADMIN   0/101
NORD.CHAT   0/2572
NORD.FIDONET   189
NORD.HARDWARE   0/28
NORD.KULTUR   0/114
NORD.PROG   0/32
NORD.SOFTWARE   0/88
NORD.TEKNIK   0/58
NORD   0/453
OCCULT_CHAT   0/93
OS2BBS   0/787
OS2DOSBBS   0/580
OS2HW   0/42
OS2INET   0/37
OS2LAN   0/134
OS2PROG   0/36
OS2REXX   0/113
OS2USER-L   207
OS2   0/4830
OSDEBATE   0/18996
PASCAL   0/490
PERL   0/457
PHP   0/45
POINTS   0/405
POLITICS   0/29554
POL_INC   0/14731
PSION   103
R20_ADMIN   1133
R20_AMATORRADIO   0/2
R20_BEST_OF_FIDONET   16
R20_CHAT   0/896
R20_DEPP   0/3
R20_DEV   400
R20_ECHO2   1831
R20_ECHOPRES   0/35
R20_ESTAT   0/719
R20_FIDONETPROG...
...RAM.MYPOINT
  0/2
R20_FIDONETPROGRAM   0/22
R20_FIDONET   0/248
R20_FILEFIND   0/24
R20_FILEFOUND   0/22
R20_HIFI   0/3
R20_INFO2   3724
R20_INTERNET   0/12940
R20_INTRESSE   0/60
R20_INTR_KOM   0/99
R20_KANDIDAT.CHAT   42
R20_KANDIDAT   28
R20_KOM_DEV   112
R20_KONTROLL   0/13360
R20_KORSET   0/18
R20_LOKALTRAFIK   0/24
R20_MODERATOR   0/1852
R20_NC   76
R20_NET200   245
R20_NETWORK.OTH...
...ERNETS
  0/13
R20_OPERATIVSYS...
...TEM.LINUX
  0/44
R20_PROGRAMVAROR   0/1
R20_REC2NEC   534
R20_SFOSM   0/341
R20_SF   0/108
R20_SPRAK.ENGLISH   0/1
R20_SQUISH   107
R20_TEST   2
R20_WORST_OF_FIDONET   20
RAR   0/9
RA_MULTI   106
RA_UTIL   0/162
REGCON.EUR   0/2068
REGCON   0/13
SCIENCE   0/1206
SF   0/239
SHAREWARE_SUPPORT   0/5146
SHAREWRE   0/14
SIMPSONS   0/169
STATS_OLD1   0/2539.065
STATS_OLD2   0/2530
STATS_OLD3   0/2395.095
STATS_OLD4   0/1692.25
SURVIVOR   0/495
SYSOPS_CORNER   0/3
SYSOP   0/84
TAGLINES   0/112
TEAMOS2   0/4530
TECH   0/2617
TEST.444   0/105
TRAPDOOR   0/19
TREK   0/755
TUB   0/290
UFO   0/40
UNIX   0/1316
USA_EURLINK   0/102
USR_MODEMS   0/1
VATICAN   0/2740
VIETNAM_VETS   0/14
VIRUS   0/378
VIRUS_INFO   0/201
VISUAL_BASIC   0/473
WHITEHOUSE   0/5187
WIN2000   0/101
WIN32   0/30
WIN95   0/4291
WIN95_OLD1   0/70272
WINDOWS   0/1517
WWB_SYSOP   0/419
WWB_TECH   0/810
ZCC-PUBLIC   0/1
ZEC   4

 
4DOS   0/134
ABORTION   0/7
ALASKA_CHAT   0/506
ALLFIX_FILE   0/1313
ALLFIX_FILE_OLD1   0/7997
ALT_DOS   0/152
AMATEUR_RADIO   0/1039
AMIGASALE   0/14
AMIGA   0/331
AMIGA_INT   0/1
AMIGA_PROG   0/20
AMIGA_SYSOP   0/26
ANIME   0/15
ARGUS   0/924
ASCII_ART   0/340
ASIAN_LINK   0/651
ASTRONOMY   0/417
AUDIO   0/92
AUTOMOBILE_RACING   0/105
BABYLON5   0/17862
BAG   135
BATPOWER   0/361
BBBS.ENGLISH   0/382
BBSLAW   0/109
BBS_ADS   0/5290
BBS_INTERNET   0/507
BIBLE   0/3563
BINKD   0/1119
BINKLEY   0/215
BLUEWAVE   0/2173
CABLE_MODEMS   0/25
CBM   0/46
CDRECORD   0/66
CDROM   0/20
CLASSIC_COMPUTER   0/378
COMICS   0/15
CONSPRCY   0/899
COOKING   41455
COOKING_OLD1   0/24719
COOKING_OLD2   0/40862
COOKING_OLD3   0/37489
COOKING_OLD4   31651/35496
COOKING_OLD5   9370
C_ECHO   0/189
C_PLUSPLUS   0/31
DIRTY_DOZEN   0/201
DOORGAMES   0/2286
DOS_INTERNET   0/196
duplikat   6102
ECHOLIST   0/18295
EC_SUPPORT   0/318
ELECTRONICS   0/359
ELEKTRONIK.GER   1534
ENET.LINGUISTIC   0/13
ENET.POLITICS   0/4
ENET.SOFT   0/11701
ENET.SYSOP   34296
ENET.TALKS   0/32
ENGLISH_TUTOR   0/2000
EVOLUTION   0/1335
FDECHO   0/217
FDN_ANNOUNCE   0/7068
FIDONEWS   25062
FIDONEWS_OLD1   0/49742
FIDONEWS_OLD2   0/35949
FIDONEWS_OLD3   0/30874
FIDONEWS_OLD4   0/37224
FIDO_SYSOP   12922
FIDO_UTIL   0/180
FILEFIND   0/209
FILEGATE   0/212
Möte HAM, 16661 texter
 lista första sista föregående nästa
Text 3088, 787 rader
Skriven 2009-07-16 19:30:21 av Amsat List (1:323/120.0)
Ärende: [keps]  orb09197.amsa
=============================
[keps]  orb09197.amsa

Return-Path: <keps-bounces@amsat.org>
X-Rcpt: craig.healy@chowda.com
X-UIDL: 1247787301.12541

SB KEPS @ AMSAT  $ORB09197.O
Orbital Elements  09197.OSCAR

HR AMSAT ORBITAL ELEMENTS FOR OSCAR SATELLITES
FROM WA5QGD FORT WORTH,TX July 16, 2009
Send Subscribe/unsubscribe to KEPS at 
http://www.amsat.org/mailman/listinfo/keps
BID: ORB09197.O
TO ALL RADIO AMATEURS BT

Satellite: AO-07
Catalog number: 07530
Epoch time:      09196.65943590
Element set:    0531
Inclination:      101.4244 deg
RA of node:       220.2889 deg
Eccentricity:    0.0011814
Arg of perigee:   211.3598 deg
Mean anomaly:     148.6768 deg
Mean motion:   12.53576033 rev/day
Decay rate:       -2.7e-07 rev/day^2
Epoch rev:           58628
Checksum:              313

Satellite: FO-29
Catalog number: 24278
Epoch time:      09197.65690272
Element set:      86
Inclination:      098.5498 deg
RA of node:       067.7272 deg
Eccentricity:    0.0349669
Arg of perigee:   274.0697 deg
Mean anomaly:     082.0553 deg
Mean motion:   13.52944671 rev/day
Decay rate:        6.1e-07 rev/day^2
Epoch rev:           63773
Checksum:              366

Satellite: SO-33
Catalog number: 25509
Epoch time:      09196.50301339
Element set:    0498
Inclination:      031.4344 deg
RA of node:       252.3825 deg
Eccentricity:    0.0354757
Arg of perigee:   226.0847 deg
Mean anomaly:     130.9947 deg
Mean motion:   14.28259174 rev/day
Decay rate:        6.4e-07 rev/day^2
Epoch rev:           55988
Checksum:              335

Satellite: RS-22
Catalog number: 27939
Epoch time:      09197.53291532
Element set:     841
Inclination:      097.9403 deg
RA of node:       071.3284 deg
Eccentricity:    0.0014526
Arg of perigee:   043.2667 deg
Mean anomaly:     316.9662 deg
Mean motion:   14.63328792 rev/day
Decay rate:        4.6e-07 rev/day^2
Epoch rev:           30986
Checksum:              331

Satellite: VO-52
Catalog number: 28650
Epoch time:      09197.36001720
Element set:     272
Inclination:      097.7397 deg
RA of node:       257.9759 deg
Eccentricity:    0.0025869
Arg of perigee:   295.4643 deg
Mean anomaly:     064.3883 deg
Mean motion:   14.81603180 rev/day
Decay rate:       2.40e-06 rev/day^2
Epoch rev:           22696
Checksum:              338

/EX
SB KEPS @ AMSAT  $ORB09197.D
Orbital Elements  09197.MICROS

HR AMSAT ORBITAL ELEMENTS FOR THE MICROSATS
FROM WA5QGD FORT WORTH,TX July 16, 2009
Send Subscribe/unsubscribe to KEPS at 
http://www.amsat.org/mailman/listinfo/keps
BID: ORB09197.D
TO ALL RADIO AMATEURS BT

Satellite: AO-16
Catalog number: 20439
Epoch time:      09196.57579306
Element set:    0653
Inclination:      098.2805 deg
RA of node:       163.6889 deg
Eccentricity:    0.0011954
Arg of perigee:   085.7781 deg
Mean anomaly:     274.4767 deg
Mean motion:   14.31828430 rev/day
Decay rate:        7.0e-08 rev/day^2
Epoch rev:           01721
Checksum:              336

Satellite: LO-19
Catalog number: 20442
Epoch time:      09197.60629816
Element set:     568
Inclination:      098.2435 deg
RA of node:       171.8210 deg
Eccentricity:    0.0012893
Arg of perigee:   081.4140 deg
Mean anomaly:     278.8516 deg
Mean motion:   14.32063720 rev/day
Decay rate:        6.0e-08 rev/day^2
Epoch rev:            1752
Checksum:              295

Satellite: AO-27
Catalog number: 22825
Epoch time:      09197.47813321
Element set:     291
Inclination:      098.4374 deg
RA of node:       149.9809 deg
Eccentricity:    0.0008671
Arg of perigee:   171.7942 deg
Mean anomaly:     188.3405 deg
Mean motion:   14.29269119 rev/day
Decay rate:       -7.0e-08 rev/day^2
Epoch rev:           82409
Checksum:              339

Satellite: IO-26
Catalog number: 22826
Epoch time:      09196.62325548
Element set:    0020
Inclination:      098.4314 deg
RA of node:       149.8898 deg
Eccentricity:    0.0008999
Arg of perigee:   170.1770 deg
Mean anomaly:     189.9589 deg
Mean motion:   14.29521242 rev/day
Decay rate:       -6.0e-08 rev/day^2
Epoch rev:           82407
Checksum:              345

Satellite: GO-32
Catalog number: 25397
Epoch time:      09196.54666860
Element set:    0943
Inclination:      098.3247 deg
RA of node:       217.3676 deg
Eccentricity:    0.0001832
Arg of perigee:   136.3774 deg
Mean anomaly:     223.7571 deg
Mean motion:   14.23160405 rev/day
Decay rate:      -1.42e-06 rev/day^2
Epoch rev:           57216
Checksum:              315

Satellite: NO-44
Catalog number: 26931
Epoch time:      09197.73858712
Element set:     217
Inclination:      067.0535 deg
RA of node:       348.2105 deg
Eccentricity:    0.0006013
Arg of perigee:   277.9024 deg
Mean anomaly:     082.1401 deg
Mean motion:   14.29560233 rev/day
Decay rate:      -2.46e-06 rev/day^2
Epoch rev:           40680
Checksum:              288

Satellite: SO-50
Catalog number: 27607
Epoch time:      09196.73287653
Element set:    0936
Inclination:      064.5605 deg
RA of node:       298.3927 deg
Eccentricity:    0.0064277
Arg of perigee:   198.8453 deg
Mean anomaly:     161.0290 deg
Mean motion:   14.71447623 rev/day
Decay rate:        5.4e-07 rev/day^2
Epoch rev:           35287
Checksum:              344

Satellite: CO-55
Catalog number: 27844
Epoch time:      09197.00946348
Element set:     622
Inclination:      098.7100 deg
RA of node:       205.7647 deg
Eccentricity:    0.0010945
Arg of perigee:   063.3732 deg
Mean anomaly:     296.8567 deg
Mean motion:   14.20646846 rev/day
Decay rate:        4.3e-07 rev/day^2
Epoch rev:           31335
Checksum:              321

